Theta_e
296 304 319 326 330 333 335 336 338 339 341 344 345 346 347 347 346 346 346 346 346 346 347 348 347 344 344 342 341 340 340 340 340 339 340 340 338 336 336 336 336 329 331
299 306 316 322 326 328 331 333 334 335 338 340 343 344 344 345 346 345 346 345 345 345 345 346 347 347 343 342 340 340 339 340 339 339 338 339 341 338 336 333 334 327 331
300 305 310 319 322 324 326 327 329 332 333 336 338 340 341 343 343 343 343 344 345 345 344 346 345 345 346 344 341 341 340 339 340 338 338 331 335 339 336 333 331 332 331
300 304 308 316 320 321 322 323 324 325 328 331 332 334 335 337 338 340 341 341 341 342 343 343 345 344 344 345 343 341 342 341 340 338 333 330 329 340 333 332 331 331 331
298 303 306 313 317 319 319 320 320 321 322 324 326 328 330 331 333 336 335 336 337 339 341 341 341 341 341 342 343 344 343 342 339 336 332 329 326 337 336 336 334 334 334
297 300 305 310 313 315 316 317 317 317 318 319 320 322 323 325 326 328 329 331 333 334 336 336 336 335 334 336 341 342 342 342 339 335 331 331 331 337 338 338 338 340 340
296 298 301 307 309 311 312 313 314 314 315 315 316 317 318 320 320 321 323 324 326 328 329 330 330 330 331 334 335 339 338 339 336 333 333 334 331 341 339 338 337 337 338
295 297 298 303 306 308 308 310 310 311 312 312 313 313 314 315 315 315 316 319 320 322 322 324 324 325 327 330 331 328 328 331 334 333 333 332 336 340 339 339 337 337 337
296 296 296 297 300 303 305 306 308 309 309 309 310 310 310 309 310 310 311 314 315 317 318 319 319 320 323 323 323 322 324 324 325 329 329 329 337 340 340 338 338 338 339
295 295 295 295 296 296 297 304 305 305 305 305 306 306 306 305 307 307 308 311 312 313 315 315 316 315 316 316 317 321 320 320 321 319 321 327 336 340 339 339 339 339 339
294 294 294 295 295 296 298 299 300 302 301 301 300 303 301 299 300 301 305 306 307 308 310 311 311 311 310 310 312 314 316 315 317 318 321 328 333 338 338 338 338 338 338
291 293 293 294 294 295 297 295 295 296 295 294 293 295 297 296 298 298 299 301 302 303 304 305 307 306 304 301 302 306 304 307 313 315 317 324 328 332 334 333 334 334 335
291 292 293 293 294 294 294 293 293 293 292 291 290 291 293 294 293 293 293 293 293 296 294 296 296 297 297 297 300 300 301 302 307 312 312 318 322 326 328 329 330 330 330
291 291 292 292 292 290 291 291 291 291 289 289 289 290 290 290 290 290 290 290 290 291 291 292 293 294 294 295 297 298 300 302 306 307 306 312 314 319 323 324 325 327 326
289 290 290 290 290 289 288 288 288 288 288 287 287 288 289 288 288 288 288 289 289 290 290 290 291 292 292 293 295 297 300 300 302 299 298 306 308 312 316 319 322 322 323
289 288 288 288 288 288 286 286 286 287 287 287 287 287 288 288 287 287 287 287 287 288 289 289 289 290 290 291 292 297 297 297 293 294 295 296 302 307 309 313 316 316 316
288 288 286 287 287 286 286 286 286 287 287 286 286 287 287 288 286 286 286 286 286 287 287 288 289 289 288 290 290 296 296 294 291 291 292 293 293 300 303 307 310 309 311
286 286 287 288 286 285 285 285 285 286 285 285 286 286 287 287 287 285 285 285 286 286 286 286 287 287 286 287 287 293 293 293 291 290 290 290 291 291 296 301 303 304 305
285 285 285 286 285 285 285 285 284 284 284 284 285 285 285 286 287 285 285 285 285 284 284 285 285 285 285 286 289 294 292 291 291 290 288 289 289 289 289 296 297 298 299
283 284 285 285 285 285 285 284 284 284 284 284 284 285 285 285 285 285 284 284 285 283 283 284 283 284 284 285 289 293 290 290 289 288 287 288 288 288 288 289 290 290 295
282 283 283 284 284 284 284 283 282 281 282 282 284 285 285 285 285 284 284 284 284 283 282 283 283 283 284 285 285 286 288 287 287 287 286 286 286 287 287 288 288 288 288
281 281 282 283 283 284 284 283 282 281 282 283 283 284 285 285 285 285 283 283 283 282 282 282 282 281 282 283 281 282 280 284 284 286 284 284 283 285 285 287 287 287 286
280 280 281 282 282 283 284 283 282 282 281 281 282 282 284 285 284 284 283 283 282 282 281 281 281 281 280 281 283 280 277 277 279 284 283 283 282 283 283 284 286 286 285
279 279 281 282 282 283 283 282 281 279 278 279 281 281 282 283 283 284 283 282 282 282 280 281 281 281 281 279 281 284 281 280 277 276 280 281 282 282 282 283 283 285 284
280 279 280 281 281 282 282 282 280 279 279 280 280 280 281 282 282 283 282 281 280 280 280 280 280 279 280 279 279 280 280 280 279 277 275 277 279 280 281 282 283 282 283
280 280 279 280 280 281 281 281 281 280 279 279 279 279 279 280 280 281 282 280 280 280 280 280 280 279 279 279 280 280 279 278 277 277 275 275 276 278 281 281 281 281 282
Wind_Speed
5 7 15 15 15 16 18 19 19 20 19 18 18 17 15 12 11 11 12 12 11 11 11 11 7 3 3 3 4 4 5 5 5 5 4 3 6 6 6 9 8 5 8
5 9 14 15 15 16 17 18 18 18 18 18 19 18 17 17 15 13 12 11 10 11 10 10 10 11 2 2 2 2 3 3 2 2 2 5 4 6 5 6 6 5 6
8 9 10 14 15 16 17 17 18 18 17 17 18 18 18 18 16 15 14 15 14 12 11 12 10 11 10 0 1 1 1 0 1 4 3 1 3 5 5 5 4 4 5
8 8 9 13 15 16 17 17 17 16 17 17 16 17 17 17 16 16 16 15 14 12 12 10 12 13 12 9 4 2 3 2 3 5 3 3 5 8 4 3 2 2 3
7 7 8 13 15 16 17 17 17 16 16 15 15 16 16 16 17 17 17 16 15 15 15 14 13 14 13 12 12 7 4 4 4 5 5 4 3 8 7 5 2 1 3
6 5 9 13 15 16 16 16 17 16 16 16 15 14 14 15 15 16 17 17 15 15 14 14 13 12 11 11 13 11 7 4 3 4 6 6 5 8 9 7 4 3 5
6 5 4 12 12 15 15 15 16 16 16 16 15 13 14 14 16 15 16 16 15 15 16 15 14 14 13 11 10 12 13 3 3 5 6 5 5 9 7 6 4 4 6
6 6 6 10 12 13 15 15 15 16 16 16 16 14 13 15 14 16 16 15 15 14 15 14 15 15 13 11 11 13 13 10 5 5 6 6 6 7 7 7 4 5 8
6 6 5 6 8 11 13 13 15 17 17 17 17 16 16 16 15 15 16 15 17 14 15 15 15 16 14 13 14 14 13 9 5 4 7 6 15 13 7 6 5 6 8
7 7 6 6 6 5 5 15 15 16 18 18 17 17 17 16 16 17 16 17 18 17 17 16 17 17 16 16 16 13 11 12 7 11 7 7 16 14 12 11 12 13 12
7 6 5 7 5 6 6 9 12 16 18 18 16 18 10 7 7 11 17 19 19 19 19 18 18 18 16 15 17 16 10 5 6 8 6 19 23 20 19 19 20 20 19
5 5 5 5 6 5 7 6 6 8 7 9 10 10 7 9 9 12 14 19 18 20 19 19 19 17 13 6 5 10 5 7 5 8 7 20 23 23 24 24 21 22 20
4 4 5 6 6 4 5 4 4 4 5 6 10 9 8 7 6 6 6 6 7 13 7 10 9 7 8 6 6 5 5 5 5 7 12 20 22 25 24 23 24 23 22
7 7 6 7 5 6 5 4 5 5 5 6 7 9 6 5 7 7 6 7 7 6 8 7 6 8 9 9 7 6 6 6 6 7 12 21 24 24 22 22 22 21 22
7 5 5 6 4 5 6 4 5 5 5 6 7 8 7 6 6 6 6 6 7 7 7 7 7 7 8 9 8 6 10 12 11 7 6 22 23 23 22 23 23 24 25
6 5 4 5 5 6 5 6 4 4 5 6 6 7 9 6 6 6 6 7 7 7 7 6 7 6 6 6 8 7 9 11 12 11 8 9 23 23 23 23 23 26 25
5 4 5 6 6 6 6 6 5 5 6 6 6 8 9 8 8 7 6 7 7 6 8 6 7 6 7 7 7 6 8 11 12 12 9 8 9 20 24 24 24 26 25
5 5 5 6 6 7 6 5 4 5 5 5 6 6 9 9 8 7 7 7 7 6 7 6 7 7 6 6 4 4 7 8 11 11 9 8 8 7 14 23 24 25 26
6 5 5 6 5 6 6 5 5 6 5 4 5 6 8 9 9 7 7 7 7 6 7 7 6 5 7 6 4 4 7 7 7 9 11 10 10 9 6 17 21 24 27
6 5 5 4 4 3 4 4 4 4 4 4 4 5 7 6 8 6 6 8 7 7 8 8 6 6 6 5 4 5 6 4 5 6 8 8 9 9 8 8 5 11 25
7 6 6 5 3 2 2 3 3 3 3 4 4 6 7 7 7 8 6 7 7 8 8 10 6 6 10 9 4 4 4 5 7 5 5 7 9 8 9 7 5 6 9
7 6 6 6 4 3 3 2 3 3 2 3 3 5 6 6 7 8 7 7 8 7 9 11 10 4 4 8 4 1 4 4 4 5 5 8 7 5 7 8 6 8 8
7 6 6 6 5 4 5 3 3 4 3 2 3 3 4 6 6 6 7 6 7 7 7 6 8 10 6 4 9 3 3 2 4 3 5 8 10 5 5 6 6 8 9
8 6 7 6 5 4 5 3 3 3 3 2 2 2 3 5 6 6 6 6 6 4 6 5 6 5 4 6 3 6 5 3 3 4 3 5 8 6 6 5 5 7 9
9 9 7 7 5 5 3 5 5 5 3 2 2 4 3 3 5 5 5 6 5 4 5 5 5 6 4 3 3 3 3 3 4 3 3 6 5 4 4 4 4 4 8
8 9 8 8 6 5 4 5 7 8 6 4 2 3 2 2 3 5 5 5 5 5 5 4 5 6 5 4 3 4 3 2 2 2 2 3 5 5 7 3 4 4 6
Wind_Direction
25 29 5 10 18 25 29 30 30 27 20 23 31 36 38 33 45 46 41 40 34 29 28 27 27 24 47 52 60 61 61 60 66 63 53 43 109 92 60 50 50 47 36
77 41 10 11 20 27 31 31 31 29 23 22 26 30 30 32 41 38 44 39 38 28 27 27 32 18 3 73 57 109 91 72 45 13 4 347 161 134 98 52 47 47 33
72 42 12 14 23 28 33 33 30 29 24 23 27 29 29 31 29 31 34 32 29 25 26 26 28 25 13 171 223 231 134 155 303 304 317 275 250 190 135 108 68 43 41
66 48 17 19 27 30 33 34 32 31 28 26 26 26 27 28 27 31 34 29 25 18 17 22 22 26 19 10 291 242 232 226 278 297 300 234 258 201 153 136 113 21 13
69 59 23 27 32 33 32 32 32 31 29 28 27 28 27 28 28 31 33 27 24 19 15 20 14 14 12 7 9 326 258 244 260 285 290 304 276 186 171 170 184 239 305
57 85 33 31 35 35 35 33 32 32 30 29 28 31 32 31 29 28 28 23 26 22 20 19 14 11 5 0 358 3 317 247 303 300 295 293 256 187 179 179 185 210 262
53 49 40 36 39 35 36 35 35 33 31 30 30 31 37 36 33 30 25 24 17 17 15 13 8 3 3 7 4 6 3 296 256 294 293 295 292 210 197 199 211 262 282
71 53 40 25 36 42 38 36 36 36 33 30 30 31 34 32 38 31 24 25 22 19 16 13 11 5 5 15 21 11 1 352 335 299 292 314 287 191 217 217 240 263 273
56 50 37 31 28 36 41 36 34 38 35 33 31 32 34 30 27 31 25 23 22 22 19 19 15 15 17 18 17 9 350 339 337 309 17 6 345 295 252 240 250 274 280
61 48 27 33 11 15 39 41 35 39 36 35 31 32 37 29 32 29 27 21 24 21 21 20 20 18 18 17 14 8 22 24 17 57 30 360 12 23 7 351 338 320 309
69 60 34 31 15 12 49 40 38 39 39 32 23 24 26 18 12 27 30 29 28 24 24 20 21 20 16 14 12 9 19 29 45 63 31 19 29 36 39 40 39 32 19
65 53 37 38 17 23 61 42 32 40 34 31 20 15 16 22 25 32 27 30 25 23 22 20 19 16 17 4 2 10 14 12 48 66 49 38 39 38 40 38 35 34 27
85 74 41 48 22 18 53 45 45 42 30 24 25 18 16 22 23 24 19 14 11 11 11 9 7 10 3 5 3 2 1 15 53 63 47 47 42 43 44 42 41 42 37
89 53 33 48 29 33 51 39 49 58 42 35 27 20 17 20 26 26 21 12 14 6 3 5 6 5 5 1 0 356 5 23 69 64 40 43 43 42 44 40 42 45 45
95 83 45 57 41 49 56 48 47 49 53 41 33 23 24 26 31 25 20 14 14 8 9 7 10 9 3 357 359 4 37 53 56 54 42 46 44 41 42 41 45 41 43
95 87 76 63 69 65 65 55 53 51 48 45 35 28 24 28 30 27 23 16 16 11 5 2 5 6 360 359 356 11 50 63 57 53 45 39 45 42 42 42 44 43 40
98 107 113 86 61 64 63 57 56 52 50 45 33 28 26 30 33 26 22 22 13 2 2 358 5 7 9 9 7 33 57 65 58 50 44 42 37 38 45 44 44 46 40
130 119 78 83 74 73 75 66 58 58 53 45 37 29 27 28 30 32 29 24 10 12 12 6 8 15 10 10 350 36 60 68 71 57 48 41 38 33 34 46 43 42 38
144 134 109 102 94 98 94 87 77 71 57 45 41 34 24 26 28 35 29 19 13 18 17 10 7 8 13 4 357 45 68 67 72 62 50 41 37 32 22 38 43 37 35
128 127 118 107 106 116 102 90 71 70 61 48 39 41 33 27 31 32 29 26 24 28 23 15 13 3 19 358 13 44 71 55 69 73 55 41 33 28 18 23 29 29 32
138 141 146 138 176 78 86 100 80 81 67 50 47 40 36 30 29 31 29 28 25 30 20 17 2 10 21 9 36 11 40 63 57 64 51 44 28 19 15 13 30 32 26
159 168 162 160 152 124 122 125 132 132 92 102 68 43 39 34 30 44 35 33 32 28 28 24 23 1 13 23 31 352 14 340 15 54 53 38 23 9 13 2 19 38 39
169 172 157 153 138 121 122 107 88 82 69 62 45 45 36 43 36 38 36 38 34 34 28 24 22 25 18 350 34 62 33 356 326 351 31 30 7 5 360 357 24 46 35
183 169 158 154 146 153 155 139 163 150 136 148 122 113 66 56 44 40 44 42 40 33 33 24 31 27 27 25 349 21 46 69 19 332 345 16 348 355 351 355 14 53 33
162 169 166 161 165 172 163 135 122 112 116 124 108 103 106 74 60 53 53 49 43 33 31 36 30 31 29 45 29 344 15 38 41 50 313 336 338 339 345 343 25 48 33
167 162 162 165 183 182 169 145 145 141 145 129 140 130 132 105 61 56 58 56 49 40 31 27 38 38 31 41 37 36 43 40 10 30 321 311 313 307 319 352 46 36 24